Showing default

METEOR 2-6, 11962

Orbit data source: Space-Track

METEOR 2-6, 11962 is a Commonwealth of Independent States-origin payload satellite in LEO that was launched on Tue, 09 Sep 1980 UTC via a VOSTOK 8A92M launch vehicle from the Plesetsk Missile And Space Complex (PKMTR). Payloads include a variety of satellites, spacecraft, and rockets equipped with specific instruments for various scientific and technological missions. These include communications satellites like Starlink; space stations such as the ISS; scientific satellites like the Hubble; Earth observation satellites from companies like Planet Labs, Umbra, and HawkEye 360; GPS; miniature CubeSats for education and research; and military/defense satellites.

Loading next visibility...
METEOR 2-6 details
Identifier
11962, 1980-073A
Orbit
LEO
Last TLE update20 hours ago
Origin
Flag of CISGUKOSR/GMS (CIS)
ManufacturerVNIIEM
MissionCivil Weather
Bus & MotorMETEOR-2, Unknown motor
Mass~1,500 kg wet, ~1,500 kg dry
Launch date (UTC)
1980-09-09 (44 years ago)
Launch vehicle
VOSTOK 8A92M
Launch site
Plesetsk Missile And Space Complex (PKMTR)
Object type
Payload
Rocket body
Debris
Shape & HBRCyl + 2 Pan, 4.5 m
Radar Cross Section5.718 m², Large (>1 m²)

Expand to show TLE details & history

TLE from 20 hours ago
0 METEOR 2-6
1 11962U 80073A   24360.66957145  .00000257  00000-0  13573-3 0  9991
2 11962  81.2226 256.2098 0034875 223.9256 135.9142 14.10994941278992
Epoch: 2024-12-25T16:04Z
Definitive object data (Epoch: 2024-12-25T16:04:10.973Z)
Latitude-0.00004°
Longitude-79.49592°
Altitude877.037 km
Speed7.404 km/s
True Right ascension17h 04m 50s
True Declination0° 00' 00"
Sunlit
Object was in daylight at TLE epoch
Visualization TLE readout
Latitude-71.2094°
Longitude126.52749°
Altitude860.861 km
Speed7.432 km/s
Apparent Right ascension01h 13m 56s
Apparent Declination-67° 16' 13"
Sunlit
Object is in daylight
Visualization observer readout
Local Sidereal Time11:20:39
Azimuth200.543° SSW
Elevation-58.508°
Doppler factor1
Orbital elements
Apogee altitude878.362 km
Perigee altitude827.924 km
Semi-major axis7,231.28 km
Eccentricity0.0034875
Inclination81.2226°
RAAN256.2098°
Arg. of periapsis223.9256°
True anomaly136.19137°
Mean anomaly135.9142°
Eccentric anomaly136.05287°
Mean motion3.52956 °/min
BSTAR0.00013573
Orbital period102 mins
Loading maneuver chart data...
Loading historical data...
Loading historical data...
Loading historical data...
Loading historical data...
Loading historical data...
Loading historical data...
Loading historical data...

METEOR 2-6 Visibility forecast

Observer location: undefined°, undefined

Span
Click to sort rows by Start time (UTC) header in descending order
Start Az.
Max El. time (UTC)
Max El. Az.
Max El.
End time (UTC)
End Az.
10 mins2024-12-26 17:42:13.040Z172.209° S2024-12-26 17:47:13.040Z97.62° ESE40.967°2024-12-26 17:52:13.040Z18.296° NNE
6 mins2024-12-26 19:28:13.040Z261.969° W2024-12-26 19:31:13.040Z298.836° NW17.314°2024-12-26 19:34:13.040Z332.039° NNW
8 mins2024-12-27 04:24:13.040Z13.006° NNE2024-12-27 04:28:13.040Z85.383° E33.812°2024-12-27 04:32:13.040Z142.104° SSE
6 mins2024-12-27 06:08:13.040Z305.783° NW2024-12-27 06:10:13.040Z278.036° WNW21.468°2024-12-27 06:14:13.040Z226.432° WSW
|